Flag for Canada Weather past 2 weeks in Cumberland County, Nova Scotia, Canada

Now
50 °F

Cool.


Feels Like: 46 °F
Forecast: 44 / 58 °F
Wind: 9 mph from West

Location: Kentville

Current Time: Sep 23, 2014 at 9:34:35 AM

Latest Report: Sep 23, 2014 at 9:00 AM


Visibility: N/A

Pressure: 30.03 "Hg

Humidity: 71%

Dew point: 41 °F

Location of Cumberland CountyLocation

Historic Weather in Cumberland County — Graph

°F

Cumberland County temperature yesterday

Maximum temperature yesterday: 76 °F (at 4:00 PM)
Minimum temperature yesterday: 56 °F (at 11:00 PM)
Average temperature yesterday: 68 °F

Past Weeks' High & Low Weather Summary

 TemperatureHumidityPressure
High77 °F (Sep 21, 2:00 PM)100% (Sep 22, 2:00 AM)30.47 "Hg (Sep 22, 2:00 AM)
Low35 °F (Sep 20, 6:00 AM)27% (Sep 8, 2:00 PM)29.35 "Hg (Sep 22, 6:00 AM)
Average56 °F76%30.06 "Hg
* Reported Sep 8 8:00 AM — Sep 23 8:00 AM, Cumberland County, Weather by CustomWeather, © 2014

Note: Actual official high and low records may vary slightly from our data, if they occured in-between our weather recording intervals... More about our weather records

Advertising

Cumberland County weather history for previous 24 hours

 ConditionsComfort  
Time TempWeatherWind HumidityBarometerVisibility
8:00 AM
Sep 23
50 °FCool.6 mph74%30.01 "HgN/A
7:00 AM49 °FCool.7 mph74%29.98 "HgN/A
6:00 AM49 °FCool.6 mph76%29.95 "HgN/A
5:00 AM49 °FCool.8 mph75%29.92 "HgN/A
4:00 AM50 °FCool.9 mph74%29.89 "HgN/A
3:00 AM50 °FCool.8 mph71%29.88 "HgN/A
2:00 AM51 °FCool.10 mph69%29.85 "HgN/A
1:00 AM52 °FCool.10 mph69%29.84 "HgN/A
12:00 AM53 °FCool.12 mph70%29.81 "HgN/A
11:00 PM
Sep 22
56 °FCool.12 mph70%29.77 "HgN/A
10:00 PM59 °FCool.10 mph65%29.73 "HgN/A
9:00 PM62 °FCool.12 mph63%29.69 "HgN/A
8:00 PM64 °FMild.9 mph66%29.62 "HgN/A
7:00 PM67 °FMild.15 mph62%29.59 "HgN/A
6:00 PM71 °FMild.15 mph45%29.55 "HgN/A
5:00 PM74 °FMild.17 mph48%29.53 "HgN/A
4:00 PM76 °FMild.14 mph50%29.53 "HgN/A
3:00 PM75 °FMild.17 mph62%29.51 "HgN/A
2:00 PM75 °FMild.17 mph68%29.52 "HgN/A
1:00 PM74 °FMild.12 mph74%29.51 "HgN/A
12:00 PM73 °FMild.14 mph83%29.49 "HgN/A
11:00 AM70 °FMild.10 mph92%29.49 "HgN/A
10:00 AM68 °FMild.9 mph97%29.48 "HgN/A
9:00 AM67 °FMild.8 mph96%29.45 "HgN/A
Weather by CustomWeather, © 2014

See weather overviewHow to use our weather pages